Regional Weather Roundup
Issued by NWS

Home | Current Version | Previous Version | Graphics & Text | Print | Product List | Glossary On
Versions: 1 2 3 4 5 6 7 8 9 10 11 12 13 14 15 16 17 18 19 20 21 22 23 24 25 26 27 28 29 30 31 32 33 34 35 36 37 38 39 40 41 42 43 44 45 46 47 48 49 50
000
ASUS43 KLMK 272202
RWRKY
KENTUCKY REGIONAL WEATHER ROUNDUP
NATIONAL WEATHER SERVICE LOUISVILLE KY
600 PM EDT THU AUG 27 2015

NOTE "FAIR" INDICATES FEW OR NO CLOUDS BELOW 12,000 FEET
WITH NO SIGNIFICANT WEATHER AND/OR OBSTRUCTIONS TO VISIBILITY.

KYZ001>023-026-027-061>063-070>075-272300-
WESTERN AND SOUTH CENTRAL KENTUCKY

CITY           SKY/WX    TMP DP  RH WIND       PRES   REMARKS
PADUCAH        FAIR      81  57  43 E5        30.09S
HENDERSON      FAIR      79  57  47 NE6       30.09S
OWENSBORO      FAIR      80  58  46 NE6       30.11S
HOPKINSVILLE   FAIR      80  58  46 N10       30.09S
BOWLING GREEN  FAIR      81  55  40 N6        30.09F
GLASGOW        FAIR      79  53  40 NE3       30.10S
$$

KYZ024-025-028>034-038-045-046-053-272300-
NORTH CENTRAL KENTUCKY

CITY           SKY/WX    TMP DP  RH WIND       PRES   REMARKS
LOUISVILLE/SDF PTSUNNY   79  54  41 N9        30.12R
LOUISVILLE/LOU CLOUDY    78  54  43 NE7       30.13S
FORT KNOX      FAIR      76  55  48 NE5       30.11S
$$

KYZ035>037-039>044-047>052-055>060-089>105-272300-
NORTHEAST KENTUCKY

CITY           SKY/WX    TMP DP  RH WIND       PRES   REMARKS
LEXINGTON      PTSUNNY   76  53  44 NE10      30.14S
COVINGTON      PTSUNNY   74  55  51 N5        30.15S
FRANKFORT      CLOUDY    75  54  47 NE8       30.13S
$$

KYZ054-064>069-076>088-106>120-272300-
SOUTHEAST KENTUCKY

CITY           SKY/WX    TMP DP  RH WIND       PRES   REMARKS
JACKSON        FAIR      74  57  55 CALM      30.14R
LONDON         FAIR      78  52  40 NE6       30.11S
SOMERSET       NOT AVBL
MIDDLESBORO    FAIR      79  61  53 N5        30.09S
MONTICELLO     FAIR      80  57  45 N6        30.13S
$$



USA.gov is the U.S. government's official web portal to all federal, state and local government web resources and services.